Nome, AK

5:09 PM AKDT on July 20, 2017 (GMT -0800)
Nome

Weather History for PAOM - April, 2014

Change the Weather History Date:

Saturday, April 5, 2014

  Actual Average Record
Temperature  
Mean Temperature 13 °F 15 °F  
Max Temperature 20 °F 23 °F 40 °F (1994)
Min Temperature 6 °F 7 °F -30 °F (1918)
Degree Days  
Heating Degree Days 52 50  
Month to date heating degree days 219 256  
Since 1 July heating degree days 9992 11231  
Cooling Degree Days 0 0  
Month to date cooling degree days 0 0  
Year to date cooling degree days 0 0  
Moisture  
Dew Point 0 °F    
Average Humidity 0    
Maximum Humidity 0    
Minimum Humidity 0    
Precipitation  
Precipitation 0.00 in 0.02 in 0.39 in (2001)
Month to date precipitation 0.00 0.11  
Year to date precipitation 2.70 2.63  
Snow  
Snow 0.00 in 0.30 in 3.80 in (2001)
Month to date snowfall 0.0 1.4  
Since 1 July snowfall 66.6 67.0  
Snow Depth 7.00 in    
Sea Level Pressure  
Sea Level Pressure 29.71 in    
Wind  
Wind Speed 10 mph (North)    
Max Wind Speed 21 mph    
Max Gust Speed 25 mph    
Visibility 10 miles    
Events      
T = Trace of Precipitation, MM = Missing Value Source: NWS Daily Summary

Daily Weather History Graph

Daily Weather History Graph

Search for Another Location

Airport or City:

Trip Planner

Search our weather history database for the weather conditions in past years. The results will help you decide how hot, cold, wet, or windy it might be!

Date:

Astronomy

Apr. 05, 2014 Rise Set
Actual Time 8:03 AM AKDT 10:07 PM AKDT
Civil Twilight 7:11 AM AKDT 10:59 PM AKDT
Nautical Twilight 6:02 AM AKDT 12:09 AM AKDT
Astronomical Twilight 4:18 AM AKDT 2:00 AM AKDT
Moon 10:58 AM AKDT (4/5) 4:50 AM AKDT (4/5)
Length of Visible Light 15h 47m
Length of Day
14h 03m
Waxing Crescent, 36% of the Moon is Illuminated
Apr 5
Waxing Crescent
Apr 7
First Quarter
Apr 14
Full
Apr 21
Last Quarter
Apr 28
New

Hourly Weather History & Observations

Time (AKDT) Temp. Windchill Dew Point Humidity Pressure Visibility Wind Dir Wind Speed Gust Speed Precip Events Conditions
12:53 AM 10.0 °F -6.5 °F -0.0 °F 64% 29.64 in 10.0 mi NNW 15.0 mph - N/A   Clear
1:53 AM 10.9 °F -5.4 °F -0.9 °F 59% 29.65 in 10.0 mi North 15.0 mph - N/A   Clear
2:53 AM 8.1 °F -9.0 °F -2.0 °F 64% 29.65 in 10.0 mi NNW 15.0 mph - N/A   Clear
3:53 AM 12.0 °F -0.4 °F -0.9 °F 56% 29.65 in 10.0 mi NNW 9.2 mph - N/A   Clear
4:53 AM 9.0 °F -3.2 °F -0.9 °F 64% 29.66 in 10.0 mi NNW 8.1 mph - N/A   Clear
5:53 AM 10.9 °F 0.2 °F -2.0 °F 56% 29.67 in 10.0 mi North 6.9 mph - N/A   Clear
6:53 AM 10.9 °F 0.2 °F -2.0 °F 56% 29.67 in 10.0 mi NNW 6.9 mph - N/A   Clear
7:53 AM 9.0 °F 2.4 °F -2.0 °F 61% 29.68 in 10.0 mi North 3.5 mph - N/A   Partly Cloudy
8:53 AM 10.0 °F -1.9 °F -2.0 °F 58% 29.69 in 10.0 mi North 8.1 mph - N/A   Partly Cloudy
9:53 AM 10.0 °F -7.1 °F -2.0 °F 58% 29.69 in 10.0 mi North 16.1 mph 23.0 mph N/A   Clear
10:53 AM 10.9 °F -5.4 °F -0.0 °F 61% 29.70 in 10.0 mi North 15.0 mph - N/A   Clear
11:53 AM 14.0 °F 1.2 °F 1.0 °F 56% 29.71 in 10.0 mi NNW 10.4 mph - N/A   Clear
12:53 PM 17.1 °F 5.0 °F 1.9 °F 52% 29.72 in 10.0 mi North 10.4 mph - N/A   Clear
1:53 PM 17.1 °F 5.8 °F 3.9 °F 56% 29.73 in 10.0 mi North 9.2 mph - N/A   Clear
2:53 PM 18.0 °F 6.9 °F 3.9 °F 54% 29.73 in 10.0 mi NNW 9.2 mph - N/A   Clear
3:53 PM 19.0 °F 8.2 °F 3.9 °F 52% 29.74 in 10.0 mi NNW 9.2 mph - N/A   Clear
4:53 PM 19.9 °F 11.1 °F 1.9 °F 46% 29.74 in 10.0 mi North 6.9 mph - N/A   Clear
5:53 PM 18.0 °F 4.2 °F 5.0 °F 57% 29.74 in 10.0 mi NNW 13.8 mph - N/A   Clear
6:53 PM 17.1 °F 4.3 °F 3.9 °F 56% 29.76 in 10.0 mi NNW 11.5 mph - N/A   Clear
7:53 PM 18.0 °F 7.7 °F 3.9 °F 54% 29.76 in 10.0 mi North 8.1 mph - N/A   Clear
8:53 PM 14.0 °F 0.5 °F 1.0 °F 56% 29.75 in 10.0 mi North 11.5 mph - N/A   Clear
9:53 PM 10.9 °F -3.4 °F -0.0 °F 61% 29.75 in 10.0 mi North 11.5 mph - N/A   Clear
10:53 PM 10.0 °F -0.9 °F -0.9 °F 61% 29.75 in 10.0 mi North 6.9 mph - N/A   Clear
11:53 PM 10.0 °F -2.9 °F -2.0 °F 58% 29.77 in 10.0 mi NNE 9.2 mph - N/A   Partly Cloudy